Albany, NY

8:57 AM EST on December 15, 2019 (GMT -0500)
Albany International

Weather History for KALB - August, 2019

Change the Weather History Date:

Friday, August 9, 2019

  Actual Average Record
Temperature  
Mean Temperature 73 °F 71 °F  
Max Temperature 81 °F 82 °F 96 °F (2001)
Min Temperature 64 °F 61 °F 46 °F (1989)
Degree Days  
Heating Degree Days 0 0  
Month to date heating degree days 0 0  
Since 1 June heating degree days 27 57  
Since 1 July heating degree days 0 5  
Cooling Degree Days 8 7  
Month to date cooling degree days 79 63  
Year to date cooling degree days 585 429  
Since 1 June cooling degree days 563 399  
Growing Degree Days 22 (Base 50)    
Moisture  
Dew Point 57 °F    
Average Humidity 62    
Maximum Humidity 87    
Minimum Humidity 36    
Precipitation  
Precipitation T in 0.13 in 1.28 in (1996)
Month to date precipitation 1.62 1.13  
Year to date precipitation 26.48 23.82  
Sea Level Pressure  
Sea Level Pressure 29.73 in    
Wind  
Wind Speed 10 mph (West)    
Max Wind Speed 22 mph    
Max Gust Speed 30 mph    
Visibility 10 miles    
Events Rain    
T = Trace of Precipitation, MM = Missing Value Source: NWS Daily Summary

Daily Weather History Graph

Daily Weather History Graph

Search for Another Location

Airport or City:

Astronomy

Aug. 09, 2019 Rise Set
Actual Time 5:54 AM EDT 8:05 PM EDT
Civil Twilight 5:23 AM EDT 8:36 PM EDT
Nautical Twilight 4:45 AM EDT 9:15 PM EDT
Astronomical Twilight 4:02 AM EDT 9:57 PM EDT
Moon 3:45 PM EDT (8/9) 12:49 AM EDT (8/9)
Length of Visible Light 15h 13m
Length of Day
14h 10m
Waxing Gibbous, 70% of the Moon is Illuminated
Aug 9
Waxing Gibbous
Aug 15
Full
Aug 23
Last Quarter
Aug 30
New
Sep 5
First Quarter

Hourly Weather History & Observations

Time (EDT) Temp. Heat Index Dew Point Humidity Pressure Visibility Wind Dir Wind Speed Gust Speed Precip Events Conditions
12:51 AM 66.9 °F - 62.1 °F 84% 29.68 in 10.0 mi SSE 3.5 mph - N/A   Mostly Cloudy
1:25 AM 66.9 °F - 62.1 °F 84% 29.69 in 10.0 mi South 5.8 mph - N/A   Overcast
1:51 AM 66.9 °F - 62.1 °F 84% 29.69 in 10.0 mi SSW 4.6 mph - N/A   Overcast
3:02 AM 66.9 °F - 62.1 °F 84% 29.70 in 10.0 mi South 4.6 mph - N/A   Mostly Cloudy
3:51 AM 66.9 °F - 61.0 °F 81% 29.70 in 10.0 mi SW 4.6 mph - N/A   Mostly Cloudy
4:51 AM 66.9 °F - 61.0 °F 81% 29.70 in 10.0 mi West 6.9 mph - N/A   Partly Cloudy
5:51 AM 64.9 °F - 60.1 °F 84% 29.72 in 10.0 mi SW 8.1 mph - N/A   Partly Cloudy
6:51 AM 66.9 °F - 60.1 °F 79% 29.74 in 10.0 mi West 3.5 mph - N/A   Partly Cloudy
7:51 AM 70.0 °F - 61.0 °F 73% 29.75 in 10.0 mi SW 5.8 mph - N/A   Partly Cloudy
8:51 AM 73.0 °F - 61.0 °F 66% 29.75 in 10.0 mi West 6.9 mph - N/A   Partly Cloudy
9:51 AM 75.0 °F - 62.1 °F 64% 29.75 in 10.0 mi NW 9.2 mph - N/A   Scattered Clouds
10:51 AM 77.0 °F - 61.0 °F 58% 29.75 in 10.0 mi West 8.1 mph - N/A   Scattered Clouds
11:51 AM 77.0 °F - 55.9 °F 48% 29.74 in 10.0 mi WNW 13.8 mph 19.6 mph N/A   Scattered Clouds
12:51 PM 79.0 °F - 57.0 °F 47% 29.73 in 10.0 mi NW 18.4 mph 24.2 mph N/A   Scattered Clouds
1:51 PM 80.1 °F 80.2 °F 55.9 °F 43% 29.73 in 10.0 mi West 16.1 mph 26.5 mph N/A   Scattered Clouds
2:51 PM 80.1 °F - 51.1 °F 36% 29.72 in 10.0 mi West 17.3 mph 24.2 mph N/A   Scattered Clouds
3:51 PM 80.1 °F - 52.0 °F 38% 29.71 in 10.0 mi West 11.5 mph 23.0 mph N/A   Partly Cloudy
4:51 PM 79.0 °F - 52.0 °F 39% 29.72 in 10.0 mi West 12.7 mph 23.0 mph N/A   Partly Cloudy
5:51 PM 78.1 °F - 52.0 °F 40% 29.73 in 10.0 mi WNW 13.8 mph - N/A   Partly Cloudy
6:51 PM 75.9 °F - 48.9 °F 38% 29.74 in 10.0 mi WNW 17.3 mph 23.0 mph N/A   Partly Cloudy
7:51 PM 72.0 °F - 51.1 °F 48% 29.74 in 10.0 mi West 6.9 mph - N/A   Partly Cloudy
8:51 PM 72.0 °F - 52.0 °F 49% 29.77 in 10.0 mi West 12.7 mph 20.7 mph 0.00 in Rain Light Rain
9:51 PM 69.1 °F - 52.0 °F 54% 29.78 in 10.0 mi WSW 8.1 mph - 0.00 in   Mostly Cloudy
10:51 PM 66.9 °F - 51.1 °F 57% 29.78 in 10.0 mi West 11.5 mph 25.3 mph 0.00 in Rain Light Rain
11:51 PM 66.0 °F - 53.1 °F 63% 29.78 in 10.0 mi West 8.1 mph - 0.00 in   Overcast